Kaneohe MCBH, HI

2:04 PM HST on October 20, 2017 (GMT -1000)
Kaneohe Bay Marine Corps Air Facility

Weather History for PHNG - January, 2013

Change the Weather History Date:

Tuesday, January 22, 2013

  Actual Average Record
Temperature  
Mean Temperature 74 °F -  
Max Temperature 80 °F 75 °F 82 °F (1998)
Min Temperature 68 °F 66 °F 61 °F (2003)
Cooling Degree Days 9    
Growing Degree Days 24 (Base 50)    
Moisture  
Dew Point 62 °F    
Average Humidity 63    
Maximum Humidity 81    
Minimum Humidity 51    
Precipitation  
Precipitation 0.00 in - - ()
Sea Level Pressure  
Sea Level Pressure 30.10 in    
Wind  
Wind Speed 9 mph (ENE)    
Max Wind Speed 13 mph    
Max Gust Speed 18 mph    
Visibility 9 miles    
Events      
Averages and records for this station are not official NWS values.
T = Trace of Precipitation, MM = Missing Value Source: NWS Daily Summary

Daily Weather History Graph

Daily Weather History Graph

Search for Another Location

Airport or City:

Trip Planner

Search our weather history database for the weather conditions in past years. The results will help you decide how hot, cold, wet, or windy it might be!

Date:

Astronomy

Jan. 22, 2013 Rise Set
Actual Time 7:10 AM HST 6:14 PM HST
Civil Twilight 6:47 AM HST 6:38 PM HST
Nautical Twilight 6:20 AM HST 7:05 PM HST
Astronomical Twilight 5:53 AM HST 7:32 PM HST
Moon 2:51 PM HST (1/22) 3:37 AM HST (1/22)
Length of Visible Light 11h 51m
Length of Day
11h 03m
Waxing Gibbous, 84% of the Moon is Illuminated
Jan 22
Waxing Gibbous
Jan 26
Full
Feb 3
Last Quarter
Feb 9
New
Feb 17
First Quarter

Hourly Weather History & Observations

Time (HST) Temp. Heat Index Dew Point Humidity Pressure Visibility Wind Dir Wind Speed Gust Speed Precip Events Conditions
12:57 AM 68.0 °F - 61.0 °F 78% 30.12 in 10.0 mi ENE 10.4 mph 16.1 mph N/A   Scattered Clouds
1:57 AM 68.0 °F - 62.1 °F 81% 30.11 in 10.0 mi ENE 9.2 mph - N/A   Mostly Cloudy
2:57 AM 68.0 °F - 62.1 °F 81% 30.10 in 10.0 mi ENE 8.1 mph - N/A   Clear
3:57 AM 68.0 °F - 59.0 °F 73% 30.09 in 10.0 mi East 6.9 mph - N/A   Clear
4:57 AM 68.0 °F - 60.1 °F 76% 30.10 in 10.0 mi ENE 6.9 mph - N/A   Clear
5:57 AM 71.6 °F - 61.0 °F 69% 30.11 in 10.0 mi ENE 5.8 mph - N/A   Partly Cloudy
6:57 AM 71.6 °F - 60.1 °F 67% 30.12 in 10.0 mi East 8.1 mph - N/A   Clear
7:57 AM 73.4 °F - 60.1 °F 63% 30.12 in 10.0 mi ENE 10.4 mph - N/A   Mostly Cloudy
8:57 AM 73.4 °F - 61.0 °F 65% 30.14 in 10.0 mi ENE 10.4 mph - N/A   Scattered Clouds
9:57 AM 75.2 °F - 64.9 °F 70% 30.15 in 10.0 mi NE 8.1 mph - 0.00 in   Scattered Clouds
10:57 AM 77.0 °F - 64.0 °F 64% 30.15 in 10.0 mi NE 9.2 mph 17.3 mph N/A   Mostly Cloudy
11:33 AM 77.0 °F - 64.4 °F 65% 30.14 in 6.2 mi ENE 6.9 mph 18.4 mph N/A   Mostly Cloudy
11:45 AM 77.0 °F - 64.4 °F 65% 30.14 in 6.2 mi ENE 10.4 mph - N/A   Scattered Clouds
11:57 AM 77.0 °F - 64.9 °F 66% 30.12 in 10.0 mi East 12.7 mph 17.3 mph N/A   Scattered Clouds
12:22 PM 78.8 °F - 62.6 °F 57% 30.12 in 6.2 mi ENE 10.4 mph 17.3 mph N/A   Mostly Cloudy
12:57 PM 78.8 °F - 62.1 °F 56% 30.10 in 10.0 mi NE 9.2 mph - N/A   Mostly Cloudy
1:19 PM 80.6 °F 81.8 °F 62.6 °F 54% 30.10 in 6.2 mi Variable 4.6 mph - N/A   Mostly Cloudy
1:57 PM 80.6 °F 81.7 °F 62.1 °F 53% 30.07 in 10.0 mi ENE 10.4 mph - N/A   Mostly Cloudy
2:57 PM 80.6 °F 81.7 °F 62.1 °F 53% 30.06 in 10.0 mi ENE 9.2 mph - N/A   Mostly Cloudy
3:05 PM 80.6 °F 81.8 °F 62.6 °F 54% 30.07 in 6.2 mi ENE 10.4 mph 17.3 mph N/A   Scattered Clouds
3:57 PM 80.6 °F 81.7 °F 62.1 °F 53% 30.06 in 10.0 mi ENE 9.2 mph - N/A   Clear
4:40 PM 80.6 °F 81.5 °F 60.8 °F 51% 30.08 in 6.2 mi ENE 9.2 mph 16.1 mph N/A   Mostly Cloudy
4:57 PM 80.6 °F 81.5 °F 61.0 °F 51% 30.06 in 10.0 mi East 9.2 mph - N/A   Scattered Clouds
5:22 PM 80.6 °F 81.5 °F 60.8 °F 51% 30.08 in 6.2 mi East 8.1 mph - N/A   Mostly Cloudy
5:57 PM 80.6 °F 81.5 °F 61.0 °F 51% 30.06 in 10.0 mi East 9.2 mph - N/A   Overcast
6:12 PM 75.2 °F - 60.8 °F 61% 30.08 in 6.2 mi East 8.1 mph - N/A   Mostly Cloudy
6:57 PM 75.2 °F - 60.1 °F 59% 30.08 in 10.0 mi ENE 10.4 mph 16.1 mph N/A   Mostly Cloudy
7:57 PM 75.2 °F - 61.0 °F 61% 30.09 in 10.0 mi East 9.2 mph 16.1 mph N/A   Mostly Cloudy
8:57 PM 71.6 °F - 60.1 °F 67% 30.09 in 10.0 mi ENE 8.1 mph - N/A   Overcast
9:57 PM 71.6 °F - 59.0 °F 64% 30.09 in 10.0 mi ENE 9.2 mph - N/A   Overcast
10:57 PM 71.6 °F - 61.0 °F 69% 30.10 in 10.0 mi East 8.1 mph - N/A   Scattered Clouds
11:57 PM 71.1 °F - 57.9 °F 63% 30.07 in 10.0 mi East 8.1 mph 16.1 mph N/A   Overcast